Location: Caltech
(34.1382°N, 118.1253°W)
Time: 14:48:24
(UTC-07:00)

Cosmos 2219 - Visible Passes

Search period start: 28 July 2015 00:00
Search period end: 07 August 2015 00:00
Orbit: 834 x 860 km, 71.1° (Epoch: 28 July)

Date Brightness Start Highest point End Pass type
(mag) Time Alt. Az. Time Alt. Az. Time Alt. Az.
28 Jul 6.1 03:12:27 10° NNE 03:15:26 15° NE 03:18:43 10° E visible
28 Jul 3.2 04:54:34 10° NNW 05:00:17 72° WSW 05:06:00 10° SSE visible
29 Jul 6.1 02:59:06 10° NNE 03:02:00 14° NE 03:05:11 10° E visible
29 Jul 3.1 04:41:09 10° NNW 04:46:53 74° WSW 04:52:36 10° SSE visible
30 Jul 6.0 02:45:47 10° NNE 02:48:34 14° NE 02:51:39 10° E visible
30 Jul 3.1 04:27:44 10° NNW 04:33:28 76° WSW 04:39:12 10° SSE visible
31 Jul 6.0 02:32:27 10° NNE 02:35:08 14° NE 02:38:07 10° E visible
31 Jul 3.1 04:14:20 10° NNW 04:20:04 78° WSW 04:25:48 10° SSE visible
01 Aug 6.0 02:19:08 10° NNE 02:21:42 13° NE 02:24:34 10° E visible
01 Aug 3.1 04:00:55 10° NNW 04:06:39 80° WSW 04:12:23 10° SSE visible
02 Aug 5.9 02:05:49 10° NNE 02:08:16 13° NE 02:11:02 10° E visible
02 Aug 3.1 03:47:29 10° NNW 03:53:15 82° WSW 03:56:20 29° SSE visible
03 Aug 5.9 01:52:31 10° NNE 01:54:50 13° NE 01:57:28 10° E visible
03 Aug 3.1 03:34:05 10° NNW 03:39:50 84° WSW 03:41:03 57° S visible
04 Aug 5.9 01:39:13 10° NNE 01:41:24 12° NE 01:43:55 10° ENE visible
04 Aug 3.1 03:20:40 10° NNW 03:26:21 85° W 03:26:21 85° W visible
05 Aug 5.8 01:25:56 10° NNE 01:27:58 12° NE 01:30:08 10° ENE visible
05 Aug 3.5 03:07:15 10° NNW 03:11:58 62° NNW 03:11:58 62° NNW visible
06 Aug 5.8 01:12:39 10° NNE 01:14:32 12° NE 01:15:58 11° ENE visible
06 Aug 3.9 02:53:51 10° NNW 02:57:49 46° NNW 02:57:49 46° NNW visible
